User: anonymous   Login
Location: Caltech
(34.1382°N, 118.1253°W)
Time: 16:15:29
(UTC-08:00)
Language:

JAS-1B - Orbit

View from above orbital plane
View from above orbital plane
View from above satellite
View from above satellite

Ground track
Ground track

The orbit data is extracted from the following two-line orbital elements,

1 20480U 90013C   18021.20829037 -.00000001  00000-0  79290-4 0  9993
2 20480  99.0712 118.8228 0539431 257.4120  96.6162 12.83418528309688
Epoch (UTC): 21 January 2018 04:59:56
Eccentricity: 0.0539431
inclination: 99.0712°
perigee height: 912 km
apogee height: 1743 km
right ascension of ascending node: 118.8228°
argument of perigee: 257.4120°
revolutions per day: 12.83418528
mean anomaly at epoch: 96.6162°
orbit number at epoch: 30968

The dashed part of the orbit path shows where the satellite is in the earth's shadow,  

DLR